{"data":{"norad_id":20442,"epoch":"2026-05-25T00:26:55.571136Z","epoch_age_seconds":70473,"freshness":"FRESH","line1":"1 20442U 90005G   26145.01869874  .00000096  00000+0  51069-4 0  9996","line2":"2 20442  98.8861 166.1848 0010428 274.7222  85.2770 14.34114908899076","mean_motion":14.34114908,"eccentricity":0.0010428,"inclination_deg":98.8861,"raan_deg":166.1848,"arg_perigee_deg":274.7222,"mean_anomaly_deg":85.277,"bstar":5.1069e-5,"rev_number":89907,"period_min":100.41036404874,"perigee_km":770.54682148719,"apogee_km":785.47168010785,"semimajor_km":7156.1462507975,"source":"CELESTRAK","updated_at":"2026-05-25T13:38:23.252320Z"}}